FW8932 Weather Reports


time (UTC)temp
C
wind
direction
speed
KPH
gust
KPH
rain 1hr
cm
rain 24hr
cm
rain mn
cm
humidity
%
barometer
mb
20260506221206 14 180 3.2 1.6 0.00 2.54 1.78 61 976.5
20260506220706 14 180 3.2 1.6 0.00 2.54 1.78 61 976.5
20260506220206 14 180 3.2 1.6 0.00 2.54 1.78 61 976.5
20260506214706 14 180 3.2 1.6 0.00 2.54 1.78 61 976.5
20260506211206 14 180 3.2 1.6 0.00 2.54 1.78 61 976.5
20260506210706 14 180 3.2 1.6 0.00 2.54 1.78 61 976.5
20260506210206 14 180 3.2 1.6 0.00 2.54 1.78 61 976.5
20260506204706 14 180 3.2 1.6 0.00 2.54 1.78 61 976.5
20260506204206 14 180 3.2 1.6 0.00 2.54 1.78 61 976.5
20260506200706 13 180 3.2 1.6 0.00 2.54 1.78 63 976.6
20260506200206 13 180 3.2 1.6 0.00 2.54 1.78 63 976.6
20260506191705 13 180 3.2 1.6 0.00 2.54 1.78 65 976.9
20260506191206 13 180 3.2 1.6 0.00 2.54 1.78 64 976.9
20260506190706 13 180 3.2 1.6 0.00 2.54 1.78 65 976.9
20260506190206 13 180 3.2 4.8 0.00 2.54 1.78 64 976.9
20260506184707 12 173 3.2 8.0 0.00 2.54 1.78 67 976.9
20260506184206 12 180 3.2 4.8 0.00 2.54 1.78 65 976.9
20260506183706 12 239 3.2 8.0 0.00 2.54 1.78 64 977.0
20260506183206 13 151 3.2 8.0 0.00 2.54 1.78 67 977.0
20260506181206 13 147 3.2 8.0 0.00 2.54 1.78 68 976.7
20260506180706 13 138 1.6 8.0 0.00 2.54 1.78 64 976.6
20260506180206 13 160 4.8 11.3 0.00 2.54 1.78 64 976.6
20260506174706 13 187 3.2 8.0 0.00 2.54 1.78 69 976.7
20260506174206 12 187 3.2 8.0 0.00 2.54 1.78 68 976.8
20260506173706 13 77 3.2 11.3 0.00 2.54 1.78 72 976.8
20260506173206 12 144 4.8 11.3 0.00 2.54 1.78 71 977.0
20260506171706 12 165 3.2 4.8 0.00 2.54 1.78 74 977.1
20260506171206 12 191 3.2 9.7 0.00 2.54 1.78 74 976.9
20260506170706 12 196 3.2 11.3 0.00 2.54 1.78 75 976.8
20260506170206 12 212 3.2 8.0 0.00 2.54 1.78 77 976.8
20260506164706 12 195 3.2 4.8 0.00 2.54 1.78 80 977.1
20260506163706 11 78 3.2 8.0 0.00 2.54 1.78 80 977.2
20260506163206 11 184 3.2 8.0 0.00 2.54 1.78 83 977.1
20260506161205 11 142 1.6 4.8 0.00 2.54 1.78 84 977.0
20260506160706 10 214 3.2 4.8 0.00 2.54 1.78 84 976.9
20260506160206 10 186 3.2 8.0 0.00 2.54 1.78 86 976.8
20260506154706 10 154 3.2 4.8 0.00 2.54 1.78 89 976.8
20260506154206 10 170 3.2 4.8 0.00 2.54 1.78 90 976.7
20260506153706 10 199 3.2 4.8 0.00 2.54 1.78 92 976.7
20260506153206 10 210 3.2 8.0 0.00 2.54 1.78 91 976.5
20260506151706 10 171 3.2 8.0 0.00 2.54 1.78 93 976.6
20260506151206 10 136 1.6 4.8 0.00 2.54 1.78 93 976.6
20260506150706 10 145 3.2 8.0 0.00 2.54 1.78 92 976.6
20260506150206 9 182 4.8 9.7 0.00 2.54 1.78 94 976.5
20260506144706 9 165 3.2 8.0 0.00 2.54 1.78 96 976.4
20260506144206 9 200 3.2 4.8 0.00 2.54 1.78 97 976.3
20260506143706 9 190 3.2 4.8 0.00 2.54 1.78 97 976.1
20260506143206 9 201 3.2 4.8 0.00 2.54 1.78 97 976.1
20260506141706 9 169 3.2 4.8 0.00 2.54 1.78 97 975.7
20260506140706 9 201 1.6 4.8 0.00 2.54 1.78 97 975.7
20260506140206 9 121 1.6 4.8 0.00 2.57 1.78 97 975.6
20260506134706 8 107 1.6 4.8 0.00 2.57 1.78 97 975.5
20260506134206 8 188 1.6 4.8 0.00 2.57 1.78 97 975.5
20260506131706 8 161 1.6 3.2 0.18 2.59 1.78 97 975.5
20260506131206 8 178 3.2 3.2 0.18 2.59 1.78 97 975.4
20260506130706 8 166 1.6 4.8 0.36 2.59 1.78 97 975.3
20260506130206 8 157 1.6 3.2 0.36 2.59 1.78 97 975.2
20260506124706 8 144 1.6 1.6 0.36 2.59 1.78 97 975.1
20260506124206 7 133 3.2 1.6 0.36 2.59 1.78 96 973.5
20260506123215 7 134 3.2 1.6 0.18 2.41 1.60 96 973.2
20260506093211 11 134 3.2 1.6 0.18 1.88 1.07 96 972.1
20260506091711 11 134 3.2 1.6 0.18 1.88 1.07 96 972.1
20260506091211 11 134 3.2 1.6 0.18 1.88 1.07 96 972.1
20260506083711 11 134 3.2 1.6 0.18 1.70 0.89 96 972.1
20260506083210 11 134 3.2 1.6 0.18 1.70 0.89 96 972.1
20260506080710 11 134 3.2 1.6 0.18 1.70 0.89 96 972.1
20260506071209 12 134 3.2 1.6 0.18 1.52 0.71 96 972.0
20260506070709 12 134 3.2 1.6 0.18 1.52 0.71 96 972.1
20260506070208 12 134 3.2 1.6 0.18 1.52 0.71 96 972.1
20260506061708 14 134 3.2 1.6 0.18 1.35 0.53 96 972.3
20260506061208 14 134 3.2 1.6 0.18 1.35 0.53 96 972.5
20260506060708 14 134 3.2 1.6 0.18 1.35 0.53 96 972.5
20260506060208 14 134 3.2 1.6 0.18 1.35 0.53 96 972.4
20260506051206 14 134 3.2 1.6 0.18 1.17 0.36 96 973.2
20260506050707 14 134 3.2 1.6 0.18 1.17 0.36 96 973.2
20260506050206 14 134 3.2 1.6 0.18 1.17 0.36 96 973.3
20260506044707 14 134 3.2 1.6 0.18 0.99 0.18 96 973.5
20260506044206 14 134 3.2 1.6 0.18 0.99 0.18 96 973.4
20260506043705 14 134 3.2 1.6 0.18 0.99 0.18 96 973.4
20260506041706 14 134 3.2 1.6 0.18 0.99 0.18 96 973.6
20260506041205 14 134 3.2 1.6 0.18 0.99 0.18 96 973.5
20260506040706 14 134 3.2 1.6 0.18 0.99 0.18 96 973.5
20260506040206 14 134 3.2 1.6 0.18 0.99 0.18 96 973.5
20260506034705 14 134 3.2 1.6 0.18 0.81 0.71 96 973.5
20260506034205 14 134 3.2 1.6 0.18 0.81 0.71 96 973.7
20260506033705 14 134 3.2 1.6 0.18 0.81 0.71 96 973.6
20260506033205 14 134 3.2 1.6 0.18 0.81 0.71 96 973.7
20260506031705 14 134 3.2 1.6 0.18 0.81 0.71 96 973.7
20260506030705 14 134 3.2 1.6 0.18 0.81 0.71 96 973.7
20260506030204 14 134 3.2 1.6 0.18 0.81 0.71 96 973.7
20260506021225 15 134 3.2 1.6 0.18 0.64 0.53 96 973.3
20260506010705 15 134 3.2 1.6 0.23 0.46 0.36 96 973.3
20260506010205 15 134 3.2 1.6 0.25 0.46 0.36 96 973.3
20260506004704 15 134 3.2 1.6 0.23 0.38 0.28 96 973.5
20260506004205 15 134 3.2 1.6 0.23 0.38 0.28 96 973.6
20260506003704 15 134 3.2 1.6 0.30 0.38 0.36 96 973.5
20260506003205 15 134 3.2 1.6 0.28 0.36 0.33 96 973.5
20260506001704 16 134 3.2 1.6 0.08 0.15 0.13 91 973.1
20260506000704 16 134 3.2 1.6 0.08 0.13 0.13 88 973.0
20260506000205 17 134 3.2 1.6 0.05 0.13 0.10 86 972.9
20260505234705 20 134 3.2 1.6 0.00 0.08 0.05 67 972.7
20260505234205 20 134 3.2 1.6 0.00 0.08 0.05 62 972.4
20260505233704 20 134 3.2 1.6 0.00 0.08 0.05 61 972.3
20260505233204 20 134 3.2 1.6 0.00 0.08 0.05 61 972.3
20260505231704 20 134 3.2 1.6 0.00 0.08 0.05 62 972.2
20260505231205 20 134 3.2 1.6 0.00 0.08 0.05 62 972.2
20260505230704 20 134 3.2 1.6 0.00 0.08 0.05 62 972.1
20260505230205 20 134 3.2 1.6 0.00 0.08 0.05 62 972.2
20260505224705 20 134 3.2 1.6 0.00 0.08 0.05 63 972.2
20260505224205 21 134 3.2 1.6 0.00 0.08 0.05 63 972.3
20260505223204 21 134 3.2 4.8 0.00 0.08 0.05 63 972.3